Time,TemperatureF,DewpointF,PressureIn,WindDirection,WindDirectionDegrees,WindSpeedMPH,WindSpeedGustMPH,Humidity,HourlyPrecipIn,Conditions,Clouds,dailyrainin,SolarRadiationWatts/m^2,SoftwareType,DateUTC
2015-03-30 00:00:00,47.1,41.4,29.97,SW,228,4.0,6.0,80,0.00,,,0.00,0.0,meteobridge,2015-03-30 04:00:00,
2015-03-30 00:05:00,47.3,41.4,29.97,WSW,253,2.9,4.0,80,0.00,,,0.00,0.0,meteobridge,2015-03-30 04:05:00,
2015-03-30 00:10:00,47.5,41.5,29.97,West,263,2.0,6.0,80,0.00,,,0.00,0.0,meteobridge,2015-03-30 04:10:00,
2015-03-30 00:15:00,47.7,41.5,29.98,NNE,14,2.0,5.0,79,0.00,,,0.00,0.0,meteobridge,2015-03-30 04:15:00,
2015-03-30 00:20:00,47.7,41.7,29.97,West,269,2.0,6.0,80,0.00,,,0.00,0.0,meteobridge,2015-03-30 04:20:00,
2015-03-30 00:25:00,47.8,41.7,29.98,WSW,244,4.0,7.0,79,0.00,,,0.00,0.0,meteobridge,2015-03-30 04:25:00,
2015-03-30 00:30:00,47.8,41.7,29.98,West,265,4.0,8.0,79,0.00,,,0.00,0.0,meteobridge,2015-03-30 04:30:00,
2015-03-30 00:35:00,47.8,41.7,29.98,WSW,243,4.0,8.0,79,0.00,,,0.00,0.0,meteobridge,2015-03-30 04:35:00,
2015-03-30 00:40:00,47.8,41.7,29.98,WSW,237,4.9,8.0,79,0.00,,,0.00,0.0,meteobridge,2015-03-30 04:40:00,
2015-03-30 00:45:00,47.8,41.7,29.98,WNW,287,2.9,5.0,79,0.00,,,0.00,0.0,meteobridge,2015-03-30 04:45:00,
2015-03-30 00:50:00,47.8,41.9,29.99,West,259,4.0,6.0,80,0.00,,,0.00,0.0,meteobridge,2015-03-30 04:50:00,
2015-03-30 00:55:00,47.8,41.9,29.99,SW,227,4.0,4.0,80,0.00,,,0.00,0.0,meteobridge,2015-03-30 04:55:00,
2015-03-30 01:00:00,47.7,41.7,30.00,West,281,6.0,8.0,80,0.00,,,0.00,0.0,meteobridge,2015-03-30 05:00:00,
2015-03-30 01:05:00,47.7,41.7,30.00,WSW,246,2.0,5.0,80,0.00,,,0.00,0.0,meteobridge,2015-03-30 05:05:00,
2015-03-30 01:10:00,47.5,41.5,30.00,NW,321,6.0,10.0,80,0.00,,,0.00,0.0,meteobridge,2015-03-30 05:10:00,
2015-03-30 01:15:00,47.5,41.4,30.01,WNW,288,4.0,5.0,79,0.00,,,0.00,0.0,meteobridge,2015-03-30 05:15:00,
2015-03-30 01:20:00,47.1,41.0,30.01,NNW,343,2.9,10.0,79,0.00,,,0.00,0.0,meteobridge,2015-03-30 05:20:00,
2015-03-30 01:25:00,47.1,41.0,30.01,NW,316,2.9,8.0,79,0.00,,,0.00,0.0,meteobridge,2015-03-30 05:25:00,
2015-03-30 01:30:00,46.9,40.8,30.01,WNW,300,2.9,9.0,79,0.00,,,0.00,0.0,meteobridge,2015-03-30 05:30:00,
2015-03-30 01:35:00,46.8,40.3,30.02,NNW,327,2.0,11.0,78,0.00,,,0.00,0.0,meteobridge,2015-03-30 05:35:00,
2015-03-30 01:40:00,46.6,39.7,30.02,WNW,293,0.9,5.0,77,0.00,,,0.00,0.0,meteobridge,2015-03-30 05:40:00,
2015-03-30 01:45:00,46.2,38.7,30.02,WNW,292,2.9,6.0,75,0.00,,,0.00,0.0,meteobridge,2015-03-30 05:45:00,
2015-03-30 01:50:00,46.0,38.3,30.03,NNW,338,4.0,5.0,74,0.00,,,0.00,0.0,meteobridge,2015-03-30 05:50:00,
2015-03-30 01:55:00,45.9,37.8,30.02,NW,319,0.9,4.0,73,0.00,,,0.00,0.0,meteobridge,2015-03-30 05:55:00,
2015-03-30 02:00:00,45.3,37.2,30.03,NW,311,0.9,4.0,73,0.00,,,0.00,0.0,meteobridge,2015-03-30 06:00:00,
2015-03-30 02:05:00,45.1,37.0,30.03,WNW,296,2.0,5.0,73,0.00,,,0.00,0.0,meteobridge,2015-03-30 06:05:00,
2015-03-30 02:10:00,45.1,36.7,30.02,NW,306,2.0,12.0,72,0.00,,,0.00,0.0,meteobridge,2015-03-30 06:10:00,
2015-03-30 02:15:00,45.0,36.5,30.02,WNW,290,0.9,3.0,72,0.00,,,0.00,0.0,meteobridge,2015-03-30 06:15:00,
2015-03-30 02:20:00,44.6,36.5,30.03,NW,313,0.9,5.0,73,0.00,,,0.00,0.0,meteobridge,2015-03-30 06:20:00,
2015-03-30 02:25:00,44.2,36.1,30.03,NW,313,0.9,2.0,73,0.00,,,0.00,0.0,meteobridge,2015-03-30 06:25:00,
2015-03-30 02:30:00,43.9,35.8,30.03,NW,313,2.0,2.0,73,0.00,,,0.00,0.0,meteobridge,2015-03-30 06:30:00,
2015-03-30 02:35:00,43.7,35.6,30.02,NW,313,0.0,2.0,73,0.00,,,0.00,0.0,meteobridge,2015-03-30 06:35:00,
2015-03-30 02:40:00,43.3,35.2,30.02,NW,313,0.9,2.0,73,0.00,,,0.00,0.0,meteobridge,2015-03-30 06:40:00,
2015-03-30 02:45:00,43.2,35.4,30.03,SW,218,0.9,2.0,74,0.00,,,0.00,0.0,meteobridge,2015-03-30 06:45:00,
2015-03-30 02:50:00,43.0,35.2,30.02,SW,218,0.9,2.0,74,0.00,,,0.00,0.0,meteobridge,2015-03-30 06:50:00,
2015-03-30 02:55:00,42.6,34.9,30.03,SW,218,2.0,2.0,74,0.00,,,0.00,0.0,meteobridge,2015-03-30 06:55:00,
2015-03-30 03:00:00,42.4,35.1,30.02,SW,218,2.0,2.0,75,0.00,,,0.00,0.0,meteobridge,2015-03-30 07:00:00,
2015-03-30 03:05:00,42.4,35.1,30.02,SW,218,0.9,2.0,75,0.00,,,0.00,0.0,meteobridge,2015-03-30 07:05:00,
2015-03-30 03:10:00,41.9,34.9,30.02,SW,218,0.0,2.0,76,0.00,,,0.00,0.0,meteobridge,2015-03-30 07:10:00,
2015-03-30 03:15:00,41.4,34.7,30.02,SW,221,0.9,2.0,77,0.00,,,0.00,0.0,meteobridge,2015-03-30 07:15:00,
2015-03-30 03:20:00,41.4,35.1,30.02,SW,221,0.9,2.0,78,0.00,,,0.00,0.0,meteobridge,2015-03-30 07:20:00,
2015-03-30 03:25:00,41.5,35.2,30.02,SW,221,0.9,2.0,78,0.00,,,0.00,0.0,meteobridge,2015-03-30 07:25:00,
2015-03-30 03:30:00,41.5,35.2,30.02,SW,221,0.9,2.0,78,0.00,,,0.00,0.0,meteobridge,2015-03-30 07:30:00,
2015-03-30 03:35:00,41.5,35.2,30.02,SW,221,0.9,2.0,78,0.00,,,0.00,0.0,meteobridge,2015-03-30 07:35:00,
2015-03-30 03:40:00,41.4,35.4,30.02,SW,221,0.0,0.0,79,0.00,,,0.00,0.0,meteobridge,2015-03-30 07:40:00,